This is the latest recevied weather packets stored in our database for station/object JA6YCL-13. If no packets are shown the sender has not sent any weather packets the latest 10 day(s).
| Time | Temp. | Humidity | Pressure | Rain* | Wind** | Luminosity | Snow |
|---|---|---|---|---|---|---|---|
| 1777516876 | 13.33° C | 90% | 1015.7 hPa | 1.27 mm | - | - | - |
| 1777516072 | 13.33° C | 92% | 1015.8 hPa | 1.27 mm | - | - | - |
| 1777515301 | 12.78° C | 92% | 1016.2 hPa | 2.54 mm | - | - | - |
| 1777514490 | 13.33° C | 92% | 1016.3 hPa | 2.54 mm | - | - | - |
| 1777513611 | 13.33° C | 91% | 1016.3 hPa | 2.79 mm | - | - | - |
| 1777512712 | 13.33° C | 91% | 1016.6 hPa | 2.03 mm | - | - | - |
| 1777511981 | 12.78° C | 91% | 1016.9 hPa | 3.3 mm | - | - | - |
| 1777511246 | 12.78° C | 91% | 1016.9 hPa | 4.32 mm | - | - | - |
| 1777510473 | 12.78° C | 92% | 1017.2 hPa | 0.25 mm | - | - | - |
| 1777509712 | 12.78° C | 92% | 1017.2 hPa | 1.78 mm | - | - | - |
| 1777508887 | 12.22° C | 94% | 1017.5 hPa | 6.1 mm | - | - | - |
| 1777508161 | 12.22° C | 94% | 1017.4 hPa | 3.05 mm | - | - | - |
| 1777507331 | 12.22° C | 95% | 1017.2 hPa | 3.3 mm | - | - | - |
| 1777506591 | 11.67° C | 95% | 1016.9 hPa | 3.3 mm | - | - | - |
| 1777505711 | 11.67° C | 94% | 1017.1 hPa | 2.54 mm | - | - | - |
| 1777504816 | 11.67° C | 94% | 1017.5 hPa | 4.32 mm | - | - | - |
| 1777504041 | 12.22° C | 94% | 1017.4 hPa | 2.29 mm | - | - | - |
| 1777503146 | 12.22° C | 94% | 1017.4 hPa | 1.02 mm | - | - | - |
| 1777502401 | 12.22° C | 94% | 1017.4 hPa | 1.78 mm | - | - | - |
| 1777501591 | 11.67° C | 94% | 1017.6 hPa | 1.27 mm | - | - | - |
| 1777500716 | 11.67° C | 94% | 1017.6 hPa | 1.27 mm | - | - | - |
| 1777499914 | 11.67° C | 95% | 1017.6 hPa | 1.02 mm | - | - | - |
| 1777499026 | 11.67° C | 95% | 1017.5 hPa | 3.05 mm | - | - | - |
| 1777498212 | 11.67° C | 94% | 1017.8 hPa | 1.52 mm | - | - | - |
| 1777497409 | 11.67° C | 95% | 1017.6 hPa | 0.25 mm | - | - | - |
* Rain latest hour (hover to see other rain measurements)
** Current wind speed in m/s (hover to see current wind gust speed)